Boise, ID

7:32 AM MDT on September 21, 2017 (GMT -0600)
Boise Air Term

Weather History for KBOI - April, 2013

Change the Weather History Date:

Tuesday, April 16, 2013

  Actual Average Record
Temperature  
Mean Temperature 45 °F 51 °F  
Max Temperature 54 °F 62 °F 86 °F (1875)
Min Temperature 35 °F 39 °F 20 °F (1960)
Degree Days  
Heating Degree Days 20 14  
Month to date heating degree days 244 253  
Since 1 July heating degree days 4951 5048  
Cooling Degree Days 0 0  
Month to date cooling degree days 0 0  
Year to date cooling degree days 0 0  
Moisture  
Dew Point 21 °F    
Average Humidity 48    
Maximum Humidity 76    
Minimum Humidity 20    
Precipitation  
Precipitation 0.00 in 0.04 in 0.44 in (1956)
Month to date precipitation 0.62 0.64  
Year to date precipitation 2.82 4.26  
Snow  
Snow 0.00 in 0.00 in 0.70 in (1963)
Month to date snowfall 0.0 0.3  
Since 1 July snowfall 16.0 19.2  
Snow Depth 0.00 in    
Sea Level Pressure  
Sea Level Pressure 29.94 in    
Wind  
Wind Speed 14 mph (WNW)    
Max Wind Speed 32 mph    
Max Gust Speed 38 mph    
Visibility 10 miles    
Events      
T = Trace of Precipitation, MM = Missing Value Source: NWS Daily Summary

Daily Weather History Graph

Daily Weather History Graph

Search for Another Location

Airport or City:

Trip Planner

Search our weather history database for the weather conditions in past years. The results will help you decide how hot, cold, wet, or windy it might be!

Date:

Astronomy

Apr. 16, 2013 Rise Set
Actual Time 7:00 AM MDT 8:29 PM MDT
Civil Twilight 6:30 AM MDT 8:59 PM MDT
Nautical Twilight 5:54 AM MDT 9:36 PM MDT
Astronomical Twilight 5:15 AM MDT 10:14 PM MDT
Moon 11:17 AM MDT (4/16) 1:34 AM MDT (4/16)
Length of Visible Light 14h 29m
Length of Day
13h 29m
Waxing Crescent, 34% of the Moon is Illuminated
Apr 16
Waxing Crescent
Apr 18
First Quarter
Apr 25
Full
May 2
Last Quarter
May 9
New

Hourly Weather History & Observations

Time (MDT) Temp. Windchill Dew Point Humidity Pressure Visibility Wind Dir Wind Speed Gust Speed Precip Events Conditions
12:53 AM 37.0 °F 31.0 °F 26.1 °F 65% 29.83 in 10.0 mi WNW 8.1 mph - N/A   Overcast
1:53 AM 36.0 °F 33.3 °F 26.1 °F 67% 29.85 in 10.0 mi NW 3.5 mph - N/A   Scattered Clouds
2:53 AM 36.0 °F - 27.0 °F 70% 29.85 in 10.0 mi Calm Calm - N/A   Overcast
3:53 AM 35.1 °F 32.2 °F 26.1 °F 70% 29.86 in 10.0 mi WSW 3.5 mph - N/A   Overcast
4:53 AM 36.0 °F - 27.0 °F 70% 29.88 in 10.0 mi Calm Calm - N/A   Overcast
5:53 AM 35.6 °F 32.8 °F 26.6 °F 70% 29.87 in 10.0 mi South 3.5 mph - N/A   Overcast
6:32 AM 35.6 °F - 28.4 °F 75% 29.88 in 10.0 mi Calm Calm - N/A   Overcast
6:53 AM 36.0 °F 33.3 °F 28.0 °F 73% 29.90 in 10.0 mi SE 3.5 mph - N/A   Overcast
7:53 AM 36.0 °F 33.3 °F 27.0 °F 70% 29.93 in 10.0 mi SW 3.5 mph - N/A   Overcast
8:21 AM 35.6 °F 28.0 °F 30.2 °F 81% 29.92 in 10.0 mi NW 10.4 mph - N/A   Overcast
8:53 AM 37.0 °F 31.0 °F 30.0 °F 76% 29.95 in 10.0 mi NW 8.1 mph - N/A   Overcast
9:21 AM 37.4 °F 30.8 °F 30.2 °F 75% 29.93 in 10.0 mi NW 9.2 mph - N/A   Overcast
9:53 AM 37.9 °F 30.0 °F 30.0 °F 73% 29.96 in 10.0 mi WNW 12.7 mph - N/A   Overcast
10:53 AM 39.9 °F 32.5 °F 28.9 °F 65% 29.97 in 10.0 mi WNW 12.7 mph - N/A   Overcast
11:53 AM 45.0 °F 37.4 °F 21.0 °F 39% 29.96 in 10.0 mi WNW 18.4 mph 21.9 mph N/A   Overcast
12:53 PM 48.0 °F - 19.0 °F 32% 29.94 in 10.0 mi WNW 16.1 mph 21.9 mph N/A   Clear
1:53 PM 51.1 °F - 18.0 °F 27% 29.94 in 10.0 mi WNW 17.3 mph 24.2 mph N/A   Partly Cloudy
2:53 PM 51.1 °F - 15.1 °F 24% 29.93 in 9.0 mi NW 19.6 mph 27.6 mph N/A   Mostly Cloudy
3:53 PM 53.1 °F - 14.0 °F 21% 29.93 in 10.0 mi NW 21.9 mph 31.1 mph N/A   Partly Cloudy
4:20 PM 51.8 °F - 12.2 °F 21% 29.91 in 8.0 mi NW 24.2 mph 35.7 mph N/A   Partly Cloudy
4:53 PM 52.0 °F - 12.9 °F 21% 29.92 in 5.0 mi NW 26.5 mph 38.0 mph N/A   Haze
5:53 PM 52.0 °F - 12.9 °F 21% 29.94 in 10.0 mi NW 23.0 mph 33.4 mph N/A   Clear
6:53 PM 51.1 °F - 12.0 °F 21% 29.96 in 10.0 mi NNW 26.5 mph 35.7 mph N/A   Clear
7:53 PM 48.0 °F - 10.9 °F 22% 29.99 in 10.0 mi NNW 24.2 mph 33.4 mph N/A   Clear
8:53 PM 44.1 °F 35.4 °F 16.0 °F 32% 30.04 in 10.0 mi WNW 21.9 mph 27.6 mph N/A   Clear
9:53 PM 41.0 °F 32.5 °F 18.0 °F 40% 30.07 in 10.0 mi WNW 17.3 mph 27.6 mph N/A   Clear
10:53 PM 37.9 °F 28.9 °F 16.0 °F 41% 30.09 in 10.0 mi WNW 16.1 mph - N/A   Clear
11:53 PM 37.0 °F 28.1 °F 14.0 °F 39% 30.11 in 10.0 mi WNW 15.0 mph - N/A   Clear